ELECTRON KICK STAGE R/B (44636 NORAD) Tracking and Keplerian Element Data

This shows tracking and keplerian element data for the satellite.

Feedback or suggestion? Click here.




ElementValue
Catalog44636
NameELECTRON KICK STAGE R/B
Epoch Orbit396
Epoch Day318.14183575
Epoch Year2019
RAAN36.9794
Inclination87.905
Eccentricity0.0500482
Argument of Perigee298.2455
Mean Anonmoly56.9067
Mean Motion14.1246238
Decay Rate3.1E-07
L11 44636U 19069C 19318.14183575 .00000031 00000-0 22715-5 0 9990
L22 44636 87.9050 36.9794 0500482 298.2455 56.9067 14.12462380 3968



Live tracking and technical data element details for ELECTRON KICK STAGE R/B (NORAD 44636). ELECTRON KICK STAGE R/B can be tracked NOW for your location showing map with azimuth and elevation plus other details from your city location.







IsCatalogInMostPopularTable: catalog: 44636, numindb: 202
Update: records affected: 1



GetName: 44636 ELECTRON KICK STAGE R/B

Hit Count: updated at: Sun, 28 May 2023 18:45:47 GMT